Tracking 19280 objects as of 14-Nov-2018
HD Live streaming from Space Station
objects crossing your sky now

COSMOS 451

Track COSMOS 451 now!
10-day predictions
COSMOS 451 is classified as:


NORAD ID: 5554
Int'l Code: 1971-086H
Perigee: 1,495.6 km
Apogee: 1,580.6 km
Inclination: 74.0 °
Period: 116.7 minutes
Semi major axis: 7909 km
RCS: 0.7471 m2 (medium)
Launch date: October 13, 1971
Source: Commonwealth of Independent States (former USSR) (CIS)
Launch site: PLESETSK MISSILE AND SPACE COMPLEX (PKMTR)
aabbcc
Your satellite tracking list
Your tracking list is empty




NASA's NSSDC Master Catalog

Two Line Element Set (TLE):
1  5554U 71086H   18318.52705420 -.00000007  00000-0  64289-4 0  9998
2  5554  74.0296   6.4915 0053767 327.2876 141.6508 12.34271627121922
Source of the keplerian elements: AFSPC